Torna al catalogo

ARIANE 2 DEB

LostGTO
NORAD 33564·DEBRIS·🇫🇷 France

Lanciato Jan 27, 1989 da Guiana Space Centre

Loading…

TLE

ObsoletoSource: Space-Track

Epoca: May 19, 2010, 01:57 UTC

1 33564U 89006BG  10139.08141688  .00000614  00000-0  87333-2 0  9991
2 33564   8.0942 239.5472 7156041 206.4341  85.1458  2.26434476 36448

Traccia ARIANE 2 DEB in tempo reale con AllMySat

Download on the App Store